CW9114 Weather Reports


Display with metric or nautical units.
time (UTC)temp
F
wind
direction
speed
MPH
gust
MPH
rain 1hr
in
rain 24hr
in
rain mn
in
humidity
%
barometer
mb
20260505204532 43 311 5.0 15.0 0.00 0.00 0.00 51 1008.0
20260505203031 44 300 3.0 15.0 0.00 0.00 0.00 49 1007.7
20260505201514 44 311 3.0 11.0 0.00 0.00 0.00 49 1007.6
20260505200034 45 276 3.0 11.0 0.00 0.00 0.00 50 1007.4
20260505194522 44 316 5.0 12.0 0.00 0.00 0.00 48 1007.4
20260505193025 45 315 3.0 13.0 0.00 0.00 0.00 49 1007.0
20260505191511 45 360 5.0 13.0 0.00 0.00 0.00 49 1007.0
20260505190016 45 278 5.0 13.0 0.00 0.00 0.00 50 1006.9
20260505184520 45 360 6.0 15.0 0.00 0.00 0.00 53 1006.8
20260505183005 43 360 6.0 13.0 0.00 0.00 0.00 59 1006.8
20260505181508 42 360 5.0 14.0 0.00 0.00 0.00 62 1006.7
20260505180011 41 360 3.0 10.0 0.00 0.00 0.00 64 1006.6
20260505174519 41 360 5.0 12.0 0.00 0.00 0.00 64 1006.4
20260505173022 42 360 5.0 11.0 0.00 0.00 0.00 62 1006.1
20260505171512 44 296 5.0 13.0 0.00 0.00 0.00 57 1005.9
20260505170015 46 273 5.0 16.0 0.00 0.00 0.00 59 1005.7
20260505164513 45 300 6.0 13.0 0.00 0.00 0.00 59 1005.6
20260505163019 45 321 4.0 12.0 0.00 0.00 0.00 59 1005.6
20260505161522 44 283 4.0 14.0 0.00 0.00 0.00 62 1005.4
20260505153015 44 311 6.0 13.0 0.00 0.00 0.00 69 1005.2
20260505151522 43 300 6.0 12.0 0.00 0.00 0.00 72 1005.1
20260505124524 40 301 1.0 5.0 0.00 0.00 0.00 73 1003.5
20260505123027 39 360 2.0 9.0 0.00 0.00 0.00 75 1003.5
20260505121512 39 360 1.0 4.0 0.00 0.00 0.00 75 1003.4
20260505120017 38 360 1.0 4.0 0.00 0.00 0.00 76 1003.3
20260505114522 37 360 0.0 7.0 0.00 0.00 0.00 77 1003.1
20260505113025 37 360 1.0 5.0 0.00 0.00 0.00 77 1003.0
20260505111535 36 360 0.0 2.0 0.00 0.00 0.00 77 1002.9
20260505101526 34 360 0.0 2.0 0.00 0.00 0.00 80 1002.0
20260505100029 35 360 0.0 1.0 0.00 0.00 0.00 78 1001.8
20260505094529 35 360 0.0 3.0 0.00 0.00 0.00 76 1002.0
20260505093019 36 360 0.0 5.0 0.00 0.00 0.00 75 1002.1
20260505091520 36 360 2.0 4.0 0.00 0.00 0.00 73 1001.9
20260505090024 37 360 1.0 6.0 0.00 0.00 0.00 72 1001.7
20260505084528 37 360 2.0 6.0 0.00 0.00 0.00 72 1001.7
20260505083027 38 360 1.0 6.0 0.00 0.00 0.00 71 1001.7
20260505081529 38 360 2.0 7.0 0.00 0.00 0.00 70 1001.5
20260505080025 39 360 1.0 8.0 0.00 0.00 0.00 69 1001.4
20260505074525 39 360 3.0 9.0 0.00 0.00 0.00 70 1001.4
20260505073041 40 360 3.0 10.0 0.00 0.00 0.00 70 1001.4
20260505071545 41 360 4.0 7.0 0.00 0.00 0.00 69 1001.3
20260505070020 41 360 1.0 8.0 0.00 0.00 0.00 70 1001.3
20260505064527 41 360 1.0 12.0 0.00 0.00 0.00 70 1001.1
20260505063013 41 360 2.0 9.0 0.00 0.00 0.00 70 1001.0
20260505061513 41 360 2.0 9.0 0.00 0.00 0.00 69 1000.9
20260505060018 42 360 1.0 10.0 0.00 0.00 0.00 69 1000.7
20260505054527 42 360 5.0 14.0 0.00 0.00 0.00 68 1000.5
20260505053005 42 360 4.0 13.0 0.00 0.00 0.00 68 1000.0
20260505051509 42 360 4.0 13.0 0.00 0.00 0.00 67 1000.0
20260505041511 44 360 1.0 14.0 0.00 0.00 0.00 63 998.9
20260505040015 44 360 4.0 11.0 0.00 0.00 0.00 62 998.7
20260505034515 44 360 4.0 15.0 0.00 0.00 0.00 60 998.6
20260505033027 44 360 2.0 12.0 0.00 0.00 0.00 59 998.4
20260505031526 45 360 7.0 16.0 0.00 0.00 0.00 59 998.3
20260505030021 45 360 2.0 12.0 0.00 0.00 0.00 58 998.1
20260505024512 45 360 4.0 12.0 0.00 0.00 0.00 58 997.9
20260505023019 45 360 4.0 11.0 0.00 0.00 0.00 58 997.9
20260505021526 46 360 2.0 11.0 0.00 0.00 0.00 57 997.8
20260505020024 46 360 5.0 25.0 0.00 0.00 0.00 56 997.5
20260505014508 47 360 7.0 21.0 0.00 0.00 0.00 55 997.2
20260505013012 47 360 4.0 16.0 0.00 0.00 0.00 55 996.9
20260505011517 48 360 6.0 17.0 0.00 0.00 0.00 53 996.7
20260505010023 48 360 8.0 21.0 0.00 0.00 0.00 52 996.4
20260505004525 49 360 5.0 14.0 0.00 0.00 0.00 51 996.1
20260505003011 50 360 5.0 13.0 0.00 0.00 0.00 50 996.1
20260505001518 51 360 5.0 20.0 0.00 0.00 0.00 49 995.8
20260505000020 52 359 7.0 16.0 0.00 0.00 0.00 46 995.7
20260504234525 53 352 8.0 20.0 0.00 0.00 0.00 43 995.4
20260504233028 53 290 4.0 20.0 0.00 0.00 0.00 44 995.2
20260504231510 54 289 7.0 22.0 0.00 0.00 0.00 43 995.1
20260504230018 55 302 4.0 18.0 0.00 0.00 0.00 43 995.0
20260504224523 55 27 9.0 21.0 0.00 0.00 0.00 42 995.0
20260504223026 56 360 4.0 20.0 0.00 0.00 0.00 42 994.6
20260504221528 57 321 7.0 15.0 0.00 0.00 0.00 43 994.4
20260504220021 58 258 7.0 17.0 0.00 0.00 0.00 42 994.2
20260504214519 58 278 4.0 17.0 0.00 0.00 0.00 42 993.9
20260504213023 58 338 5.0 17.0 0.00 0.00 0.00 43 993.6
20260504211507 59 325 8.0 18.0 0.00 0.00 0.00 43 993.6
20260504210012 59 359 4.0 15.0 0.00 0.00 0.00 44 993.3